User: anonymous   Login
Location: Unspecified
(0.0000°N, 0.0000°E)
Time: 02:05:57
(UTC+00:00)
Language:

CENTISPACE-1 S3 - Orbit

View from above orbital plane
View from above orbital plane
View from above satellite
View from above satellite

Ground track
Ground track

The orbit is defined by the following mean orbital elements,

1 53757U          26145.49866079 +.00000000 +00000-0 +49462-4 0 00006
2 53757  53.5309 149.0757 0008268 287.3806  72.6265 14.61225495    02
Epoch (UTC): 25 May 2026 11:58:04
Eccentricity: 0.0008268
inclination: 53.5309°
perigee height: 683 km
apogee height: 695 km
right ascension of ascending node: 149.0757°
argument of perigee: 287.3806°
revolutions per day: 14.61225495
mean anomaly at epoch: 72.6265°

The dashed part of the orbit path shows where the satellite is in the earth's shadow,  

DLR